(5) Astraea
ephemeris date magn radius delta ra dec elong phase
Today9 May 202511.02.643 AU1.744 AU17h24m-15°25'146.2°12.3°
Opposition5 Jun 202510.62.695 AU1.686 AU17h00m-14°51'172.1°3.0°
(5) Astraea - 2025-05-09
astro.vanbuitenen.nl


 
-1 year
-1 month
-1 day
Now
+1 day
+1 month
+1 year

The interactive orbit chart above shows the body's path through the solar system and its position at the given date. Green and blue lines are shown perpendicular to the ecliptic plane: Green if the path is above the ecliptic plane, blue if it is below. (Left-click and drag to rotate the view; Right-click and drag to move the view; Use scroll wheel to zoom in our out.)

The orbital elements of Astraea are:

            e (Eccentricity)                : 0.1874407
            a (Semimajor axis)              : 2.5767618
            i (Inclination)                 : 5.35887
            Ω (Longitude of ascending node) : 141.45353
            ω (Argument of perihelion)      : 359.31775
            M (Mean anomaly)                : 86.24723
            Epoch                           : 2025 May 05

            L (Longitude of perihelion)     : 140.77426
            B (Latitude of perihelion)      : -0.06372
            P (Orbital period in years)     : 4.14            
        

The light curve chart below shows the estimated development of the minor planet's magnitude.


The all-sky chart below shows the path of the minor planet over the same period as the light curve. The current position is marked yellow.





The following chart shows the path of the minor planet in the next few days. The field of view is optimized for (~10x50) binoculars and finderscopes. A more printer-friendly version of the same chart can be found below.




Ephemerides:
Date       Time       RA (2000)    DEC (2000)    delta   radius  elong  phase   PA    magn
2025-05-09 00:00 UT   17 24 17.3   -15 25 25     1.744    2.643  146.2   12.3   262   11.0 
2025-05-09 06:09 UT   17 24 07.9   -15 24 58     1.742    2.643  146.4   12.2   262   11.0 
2025-05-10 00:00 UT   17 23 39.9   -15 23 40     1.738    2.645  147.3   11.9   261   11.0 
2025-05-11 00:00 UT   17 23 01.1   -15 21 57     1.733    2.647  148.3   11.6   261   11.0 
2025-05-12 00:00 UT   17 22 20.9   -15 20 16     1.728    2.648  149.4   11.2   260   11.0 
2025-05-13 00:00 UT   17 21 39.4   -15 18 36     1.724    2.650  150.5   10.8   260   11.0 
2025-05-14 00:00 UT   17 20 56.6   -15 16 58     1.719    2.652  151.6   10.4   259   10.9 
2025-05-15 00:00 UT   17 20 12.5   -15 15 22     1.715    2.654  152.7   10.1   259   10.9 
2025-05-16 00:00 UT   17 19 27.2   -15 13 48     1.711    2.656  153.8    9.7   258   10.9 
2025-05-17 00:00 UT   17 18 40.7   -15 12 16     1.708    2.658  154.9    9.3   257   10.9 
2025-05-18 00:00 UT   17 17 53.1   -15 10 46     1.704    2.660  156.0    8.9   256   10.9 
2025-05-19 00:00 UT   17 17 04.4   -15 09 18     1.701    2.662  157.1    8.5   255   10.8 
2025-05-20 00:00 UT   17 16 14.6   -15 07 53     1.698    2.664  158.1    8.1   254   10.8 
2025-05-21 00:00 UT   17 15 23.9   -15 06 30     1.695    2.666  159.2    7.7   253   10.8 
2025-05-22 00:00 UT   17 14 32.2   -15 05 09     1.693    2.668  160.3    7.4   252   10.8 
2025-05-23 00:00 UT   17 13 39.6   -15 03 51     1.691    2.670  161.4    7.0   250   10.8 
2025-05-24 00:00 UT   17 12 46.2   -15 02 36     1.689    2.671  162.4    6.6   249   10.7 
2025-05-25 00:00 UT   17 11 52.1   -15 01 23     1.687    2.673  163.5    6.2   247   10.7 
2025-05-26 00:00 UT   17 10 57.2   -15 00 13     1.685    2.675  164.5    5.8   245   10.7 
2025-05-27 00:00 UT   17 10 01.7   -14 59 06     1.684    2.677  165.5    5.4   242   10.7 
2025-05-28 00:00 UT   17 09 05.6   -14 58 02     1.683    2.679  166.5    5.1   240   10.7 
2025-05-29 00:00 UT   17 08 09.0   -14 57 01     1.683    2.681  167.4    4.7   237   10.7 
2025-05-30 00:00 UT   17 07 11.9   -14 56 03     1.682    2.683  168.3    4.4   233   10.6 
2025-05-31 00:00 UT   17 06 14.5   -14 55 09     1.682    2.685  169.2    4.1   229   10.6 
2025-06-01 00:00 UT   17 05 16.8   -14 54 17     1.682    2.687  169.9    3.8   224   10.6 
2025-06-02 00:00 UT   17 04 18.8   -14 53 29     1.683    2.688  170.6    3.5   218   10.6 
2025-06-03 00:00 UT   17 03 20.7   -14 52 45     1.683    2.690  171.2    3.3   212   10.6 
2025-06-04 00:00 UT   17 02 22.5   -14 52 04     1.684    2.692  171.7    3.1   204   10.6 
2025-06-05 00:00 UT   17 01 24.2   -14 51 26     1.686    2.694  172.0    3.0   196   10.6 
2025-06-06 00:00 UT   17 00 25.9   -14 50 52     1.687    2.696  172.2    2.9   188   10.6 
2025-06-07 00:00 UT   16 59 27.7   -14 50 22     1.689    2.698  172.1    3.0   179   10.6 
2025-06-08 00:00 UT   16 58 29.7   -14 49 55     1.691    2.700  171.9    3.0   171   10.6 


    Terminology:
            
    delta:  distance between minor planet and earth in AU
    radius: distance between minor planet and sun in AU
    magn:   magnitude (brightness) estimate    
    ra:     right ascension in hours (24h = 360deg)
    dec:    declination in degrees
    elong:  elongation in degrees (angle sun-earth-minor planet)    
    phase:  phase angle in degrees (angle sun-minor planet-earth)        
    AU:     Astronomical Unit (mean distance between earth and sun: 149597870.7 km
    

Orbital elements provided by the MPC (Minor Planet Center).
Calculations by a modified version of AAPlus, a C# implementation of the AA+ project by PJ Naughter from the algorithms presented in the book "Astronomical Algorithms" by Jean Meeus.
NGC2000 dso catalog and star labels from VizieR as provided by the Strasbourg astronomical Data Center.
Tycho2 catalog from the ESO archive.